Aviation Digital Data Service (ADDS)

Output produced by METARs form (0243 UTC 24 July 2017)
found at http://www.aviationweather.gov/adds/metars/
 
OIAA 240200Z 21004KT 4000 HZ NSC 31/21 Q0994
TAF OIAA 232300Z 2400/2506 15004MPS CAVOK 
     TEMPO 2402/2405 3000 HZ NSC 
     BECMG 2408/2410 31005MPS 
     TEMPO 2412/2503 31010MPS 7000 NSC
       
OIAG 240200Z 13004KT CAVOK 31/07 Q0996
OIAW 240200Z 17004KT 8000 NSC 34/15 Q0994
TAF OIAW 232300Z 2400/2506 21003MPS 7000 NSC 
     TEMPO 2402/2405 3000 HZ NSC 
     BECMG 2412/2414 33005MPS 
     TEMPO 2418/2503 33008MPS
       
OITL 240151Z 07014KT 9999 FEW005 FEW045CB SCT090 18/16 Q1015
OIAA 240200Z 21004KT 4000 HZ NSC 31/21 Q0994
TAF OIAA 232300Z 2400/2506 15004MPS CAVOK 
     TEMPO 2402/2405 3000 HZ NSC 
     BECMG 2408/2410 31005MPS 
     TEMPO 2412/2503 31010MPS 7000 NSC
       
OIAG 240200Z 13004KT CAVOK 31/07 Q0996
OIAH 240200Z 00000KT CAVOK 26/M00 Q1003
OIAI 240153Z 36002KT CAVOK 32/02 Q0997
OIAM 240200Z 12006KT 7000 NSC 33/29 Q0994
OIAW 240200Z 17004KT 8000 NSC 34/15 Q0994
TAF OIAW 232300Z 2400/2506 21003MPS 7000 NSC 
     TEMPO 2402/2405 3000 HZ NSC 
     BECMG 2412/2414 33005MPS 
     TEMPO 2418/2503 33008MPS
       
OIBB 240200Z 00000KT 2500 BR NSC 30/29 Q0995 A2938
OIBK 240200Z 09008KT 1200 BR NSC 31/30 Q0995
TAF OIBK 232300Z 2400/2506 29004MPS 1500 BR NSC 
     BECMG 2403/2405 24004MPS 4000 HZ/BR
       
OIBL 240200Z 14004KT 1500 BR FEW015 31/31 Q0995
OIBP 240230Z 00000KT 0050 FG NSC 28/28 Q0993 A2933
OIBQ 240200Z 00000KT 6000 NSC 29/28 Q0995
OIBV 240200Z 33004KT 3000 BR NSC 32/31 Q0994
OICC 240230Z 15004KT CAVOK 20/M06 Q1010 A2984
OICI 240200Z 13004KT CAVOK 27/M03 Q1010 A2984
TAF OICI 232300Z 2400/2506 31005MPS CAVOK 
     TEMPO 2408/2414 31009MPS
       
OICJ 240150Z 00000KT CAVOK 21/M08 Q1015
OICK 240150Z 10006KT CAVOK 24/M06 Q1009
OICS 240200Z 00000KT CAVOK 19/06 Q1011
OIFK 240200Z 00000KT CAVOK 22/05 Q1008
OIFM 240230Z 28006KT 8000 NSC 13/M05 Q1015 A2998
TAF OIFM 232300Z 2400/2506 02004MPS CAVOK 
     TEMPO 2401/2403 4000 HZ NSC
       
OIFS 240200Z 11002KT CAVOK 08/M04 Q1018
OIGG 240230Z 00000KT 9999 FEW015CB SCT080 26/23 Q1007
OIGK 240150Z 13006KT 9999 SCT035 18/03 Q1018
OIHH 240151Z 11006KT CAVOK 14/M03 Q1015
OIHM 240150Z 09008KT CAVOK 18/M04 Q1014
OIIE 240230Z 30006KT CAVOK 24/M00 Q1010
TAF OIIE 232300Z 2400/2506 34003MPS CAVOK 
     BECMG 2405/2407 14005MPS
       
OIII 240230Z 00000KT CAVOK 27/04 Q1011 A2988
TAF OIII 232300Z 2400/2506 34003MPS CAVOK 
     BECMG 2405/2407 14005MPS
       
OIIK 240200Z 06002KT CAVOK 19/03 Q1012
OIIS 240200Z 33002KT CAVOK 29/04 Q1012
OIKB 240230Z 02006KT 4000 BR NSC 31/30 Q0996 A2942
TAF OIKB 232300Z 2400/2506 02003MPS 4000 HZ/BR NSC 
     TEMPO 2400/2403 2000 BR 
     BECMG 2407/2409 6000 
     TEMPO 2412/2416 19007MPS 4000 SA 
     BECMG 2416/2418 4000 HZ/BR 
     BECMG 2500/2502 02003MPS 1500 BR 
     BECMG 2503/2505 19004MPS 4000 HZ
       
OIKK 240200Z 11004KT CAVOK 14/M10 Q1015 A2999
TAF OIKK 232300Z 2400/2506 31004MPS CAVOK 
     TEMPO 2410/2415 31007MPS
       
OIKO 240150Z VRB02KT 5000 HZ NSC 30/25 Q0996
OIKQ 240200Z 05004KT 1200 BR NSC 30/30 Q0995
OIMB 240200Z 14004KT CAVOK 21/M02 Q1012
OIMC 240200Z 00000KT CAVOK 25/06 Q1005
OIMD 240200Z 00000KT CAVOK 22/02 Q1007
OIMM 240230Z 30004KT CAVOK 25/05 Q1011 A2987
TAF OIMM 232300Z 2400/2506 03005MPS CAVOK 
     TEMPO 2412/2418 03010MPS
       
OIMN 240200Z 00000KT CAVOK 16/03 Q1013
OIMQ 240200Z 00000KT CAVOK 24/02 Q1010
OINB 240200Z 18004KT 9999 FEW025 26/24 Q1006
OINE 240200Z 09004KT CAVOK 25/15 Q1006
OING 240200Z 00000KT CAVOK 24/19 Q1007
OINK 240200Z 00000KT CAVOK 23/18 Q1005
OINN 240200Z 27004KT 9999 FEW025 25/21 Q1006
OINR 240200Z VRB02KT CAVOK 25/21 Q1006
OINZ 240200Z 22010KT 9999 BKN020 25/21 Q1007
OISA 240200Z 00000KT CAVOK 16/M08 Q1017
OISF 240200Z 00000KT CAVOK 20/M02 Q1007
OISL 240200Z 27006KT CAVOK 27/10 Q1002
TAF OISL 232300Z 2400/2506 30003MPS CAVOK
       
OISS 240230Z 00000KT CAVOK 22/01 Q1012 A2988
TAF OISS 232300Z 2400/2506 04004MPS CAVOK
       
OISY 240200Z 00000KT CAVOK 16/M01 Q1016
OITL 240151Z 07014KT 9999 FEW005 FEW045CB SCT090 18/16 Q1015
OITM 240200Z 10016KT 9999 FEW040 25/01 Q1009
OITP 240200Z 15014KT 9999 BKN040 26/22 Q1007
OITR 240200Z 25004KT 9999 FEW040 17/05 Q1009
TAF OITR 232300Z 2400/2506 25005MPS CAVOK 
     TEMPO 2410/2417 8000 FEW035CB SCT040
       
OITT 240230Z 09019KT 9999 SCT040 26/05 Q1010 A2985
TAF OITT 232300Z 2400/2506 06007MPS 8000 FEW040 
     TEMPO 2408/2416 06010MPS 8000 FEW035CB SCT100
       
OITU 240150Z 00000KT 8000 NSC 20/11 Q1011
OIYY 240230Z 00000KT CAVOK 24/M07 Q1012
OIZB 240200Z 33012KT CAVOK 29/03 Q0998
OIZH 240200Z 16006KT CAVOK 20/M04 Q1009 A2982
TAF OIZH 232300Z 2400/2506 33005MPS CAVOK
       
OIZI 240200Z 02004KT CAVOK 29/00 Q1001
OIZJ 240200Z 10006KT 5000 BR NSC 32/30 Q0994
OIAA 240200Z 21004KT 4000 HZ NSC 31/21 Q0994
TAF OIAA 232300Z 2400/2506 15004MPS CAVOK 
     TEMPO 2402/2405 3000 HZ NSC 
     BECMG 2408/2410 31005MPS 
     TEMPO 2412/2503 31010MPS 7000 NSC
       
OIAG 240200Z 13004KT CAVOK 31/07 Q0996
OIAH 240200Z 00000KT CAVOK 26/M00 Q1003
OIAI 240153Z 36002KT CAVOK 32/02 Q0997
OIAM 240200Z 12006KT 7000 NSC 33/29 Q0994
OIAW 240200Z 17004KT 8000 NSC 34/15 Q0994
TAF OIAW 232300Z 2400/2506 21003MPS 7000 NSC 
     TEMPO 2402/2405 3000 HZ NSC 
     BECMG 2412/2414 33005MPS 
     TEMPO 2418/2503 33008MPS
       
OIBB 240200Z 00000KT 2500 BR NSC 30/29 Q0995 A2938
OIBK 240200Z 09008KT 1200 BR NSC 31/30 Q0995
TAF OIBK 232300Z 2400/2506 29004MPS 1500 BR NSC 
     BECMG 2403/2405 24004MPS 4000 HZ/BR
       
OIBL 240200Z 14004KT 1500 BR FEW015 31/31 Q0995
OIBP 240230Z 00000KT 0050 FG NSC 28/28 Q0993 A2933
OIBQ 240200Z 00000KT 6000 NSC 29/28 Q0995
OIBV 240200Z 33004KT 3000 BR NSC 32/31 Q0994
OICC 240230Z 15004KT CAVOK 20/M06 Q1010 A2984
OICI 240200Z 13004KT CAVOK 27/M03 Q1010 A2984
TAF OICI 232300Z 2400/2506 31005MPS CAVOK 
     TEMPO 2408/2414 31009MPS
       
OICJ 240150Z 00000KT CAVOK 21/M08 Q1015
OICK 240150Z 10006KT CAVOK 24/M06 Q1009
OICS 240200Z 00000KT CAVOK 19/06 Q1011
OIFK 240200Z 00000KT CAVOK 22/05 Q1008
OIFM 240230Z 28006KT 8000 NSC 13/M05 Q1015 A2998
TAF OIFM 232300Z 2400/2506 02004MPS CAVOK 
     TEMPO 2401/2403 4000 HZ NSC
       
OIFS 240200Z 11002KT CAVOK 08/M04 Q1018
OIGG 240230Z 00000KT 9999 FEW015CB SCT080 26/23 Q1007
OIGK 240150Z 13006KT 9999 SCT035 18/03 Q1018
OIHH 240151Z 11006KT CAVOK 14/M03 Q1015
OIHM 240150Z 09008KT CAVOK 18/M04 Q1014
OIIE 240230Z 30006KT CAVOK 24/M00 Q1010
TAF OIIE 232300Z 2400/2506 34003MPS CAVOK 
     BECMG 2405/2407 14005MPS
       
OIII 240230Z 00000KT CAVOK 27/04 Q1011 A2988
TAF OIII 232300Z 2400/2506 34003MPS CAVOK 
     BECMG 2405/2407 14005MPS
       
OIIK 240200Z 06002KT CAVOK 19/03 Q1012
OIIS 240200Z 33002KT CAVOK 29/04 Q1012
OIKB 240230Z 02006KT 4000 BR NSC 31/30 Q0996 A2942
TAF OIKB 232300Z 2400/2506 02003MPS 4000 HZ/BR NSC 
     TEMPO 2400/2403 2000 BR 
     BECMG 2407/2409 6000 
     TEMPO 2412/2416 19007MPS 4000 SA 
     BECMG 2416/2418 4000 HZ/BR 
     BECMG 2500/2502 02003MPS 1500 BR 
     BECMG 2503/2505 19004MPS 4000 HZ
       
OIKK 240200Z 11004KT CAVOK 14/M10 Q1015 A2999
TAF OIKK 232300Z 2400/2506 31004MPS CAVOK 
     TEMPO 2410/2415 31007MPS
       
OIKO 240150Z VRB02KT 5000 HZ NSC 30/25 Q0996
OIKQ 240200Z 05004KT 1200 BR NSC 30/30 Q0995
OIMB 240200Z 14004KT CAVOK 21/M02 Q1012
OIMC 240200Z 00000KT CAVOK 25/06 Q1005
OIMD 240200Z 00000KT CAVOK 22/02 Q1007
OIMM 240230Z 30004KT CAVOK 25/05 Q1011 A2987
TAF OIMM 232300Z 2400/2506 03005MPS CAVOK 
     TEMPO 2412/2418 03010MPS
       
OIMN 240200Z 00000KT CAVOK 16/03 Q1013
OIMQ 240200Z 00000KT CAVOK 24/02 Q1010
OINB 240200Z 18004KT 9999 FEW025 26/24 Q1006
OINE 240200Z 09004KT CAVOK 25/15 Q1006
OING 240200Z 00000KT CAVOK 24/19 Q1007
OINK 240200Z 00000KT CAVOK 23/18 Q1005
OINN 240200Z 27004KT 9999 FEW025 25/21 Q1006
OINR 240200Z VRB02KT CAVOK 25/21 Q1006
OINZ 240200Z 22010KT 9999 BKN020 25/21 Q1007
OISA 240200Z 00000KT CAVOK 16/M08 Q1017
OISF 240200Z 00000KT CAVOK 20/M02 Q1007
OISL 240200Z 27006KT CAVOK 27/10 Q1002
TAF OISL 232300Z 2400/2506 30003MPS CAVOK
       
OISS 240230Z 00000KT CAVOK 22/01 Q1012 A2988
TAF OISS 232300Z 2400/2506 04004MPS CAVOK
       
OISY 240200Z 00000KT CAVOK 16/M01 Q1016
OITL 240151Z 07014KT 9999 FEW005 FEW045CB SCT090 18/16 Q1015
OITM 240200Z 10016KT 9999 FEW040 25/01 Q1009
OITP 240200Z 15014KT 9999 BKN040 26/22 Q1007
OITR 240200Z 25004KT 9999 FEW040 17/05 Q1009
TAF OITR 232300Z 2400/2506 25005MPS CAVOK 
     TEMPO 2410/2417 8000 FEW035CB SCT040
       
OITT 240230Z 09019KT 9999 SCT040 26/05 Q1010 A2985
TAF OITT 232300Z 2400/2506 06007MPS 8000 FEW040 
     TEMPO 2408/2416 06010MPS 8000 FEW035CB SCT100
       
OITU 240150Z 00000KT 8000 NSC 20/11 Q1011
OIYY 240230Z 00000KT CAVOK 24/M07 Q1012
OIZB 240200Z 33012KT CAVOK 29/03 Q0998
OIZH 240200Z 16006KT CAVOK 20/M04 Q1009 A2982
TAF OIZH 232300Z 2400/2506 33005MPS CAVOK
       
OIZI 240200Z 02004KT CAVOK 29/00 Q1001
OIZJ 240200Z 10006KT 5000 BR NSC 32/30 Q0994
OIKB 240230Z 02006KT 4000 BR NSC 31/30 Q0996 A2942
TAF OIKB 232300Z 2400/2506 02003MPS 4000 HZ/BR NSC 
     TEMPO 2400/2403 2000 BR 
     BECMG 2407/2409 6000 
     TEMPO 2412/2416 19007MPS 4000 SA 
     BECMG 2416/2418 4000 HZ/BR 
     BECMG 2500/2502 02003MPS 1500 BR 
     BECMG 2503/2505 19004MPS 4000 HZ
       
OIBL 240200Z 14004KT 1500 BR FEW015 31/31 Q0995
OIAA 240200Z 21004KT 4000 HZ NSC 31/21 Q0994
TAF OIAA 232300Z 2400/2506 15004MPS CAVOK 
     TEMPO 2402/2405 3000 HZ NSC 
     BECMG 2408/2410 31005MPS 
     TEMPO 2412/2503 31010MPS 7000 NSC
       
OIAG 240200Z 13004KT CAVOK 31/07 Q0996
OIAH 240200Z 00000KT CAVOK 26/M00 Q1003
OIAI 240153Z 36002KT CAVOK 32/02 Q0997
OIAM 240200Z 12006KT 7000 NSC 33/29 Q0994
OIAW 240200Z 17004KT 8000 NSC 34/15 Q0994
TAF OIAW 232300Z 2400/2506 21003MPS 7000 NSC 
     TEMPO 2402/2405 3000 HZ NSC 
     BECMG 2412/2414 33005MPS 
     TEMPO 2418/2503 33008MPS
       
OIBB 240200Z 00000KT 2500 BR NSC 30/29 Q0995 A2938
OIBK 240200Z 09008KT 1200 BR NSC 31/30 Q0995
TAF OIBK 232300Z 2400/2506 29004MPS 1500 BR NSC 
     BECMG 2403/2405 24004MPS 4000 HZ/BR
       
OIBL 240200Z 14004KT 1500 BR FEW015 31/31 Q0995
OIBP 240230Z 00000KT 0050 FG NSC 28/28 Q0993 A2933
OIBQ 240200Z 00000KT 6000 NSC 29/28 Q0995
OIBV 240200Z 33004KT 3000 BR NSC 32/31 Q0994
OICC 240230Z 15004KT CAVOK 20/M06 Q1010 A2984
OICI 240200Z 13004KT CAVOK 27/M03 Q1010 A2984
TAF OICI 232300Z 2400/2506 31005MPS CAVOK 
     TEMPO 2408/2414 31009MPS
       
OICJ 240150Z 00000KT CAVOK 21/M08 Q1015
OICK 240150Z 10006KT CAVOK 24/M06 Q1009
OICS 240200Z 00000KT CAVOK 19/06 Q1011
OIFK 240200Z 00000KT CAVOK 22/05 Q1008
OIFM 240230Z 28006KT 8000 NSC 13/M05 Q1015 A2998
TAF OIFM 232300Z 2400/2506 02004MPS CAVOK 
     TEMPO 2401/2403 4000 HZ NSC
       
OIFS 240200Z 11002KT CAVOK 08/M04 Q1018
OIGG 240230Z 00000KT 9999 FEW015CB SCT080 26/23 Q1007
OIGK 240150Z 13006KT 9999 SCT035 18/03 Q1018
OIHH 240151Z 11006KT CAVOK 14/M03 Q1015
OIHM 240150Z 09008KT CAVOK 18/M04 Q1014
OIIE 240230Z 30006KT CAVOK 24/M00 Q1010
TAF OIIE 232300Z 2400/2506 34003MPS CAVOK 
     BECMG 2405/2407 14005MPS
       
OIII 240230Z 00000KT CAVOK 27/04 Q1011 A2988
TAF OIII 232300Z 2400/2506 34003MPS CAVOK 
     BECMG 2405/2407 14005MPS
       
OIIK 240200Z 06002KT CAVOK 19/03 Q1012
OIIS 240200Z 33002KT CAVOK 29/04 Q1012
OIKB 240230Z 02006KT 4000 BR NSC 31/30 Q0996 A2942
TAF OIKB 232300Z 2400/2506 02003MPS 4000 HZ/BR NSC 
     TEMPO 2400/2403 2000 BR 
     BECMG 2407/2409 6000 
     TEMPO 2412/2416 19007MPS 4000 SA 
     BECMG 2416/2418 4000 HZ/BR 
     BECMG 2500/2502 02003MPS 1500 BR 
     BECMG 2503/2505 19004MPS 4000 HZ
       
OIKK 240200Z 11004KT CAVOK 14/M10 Q1015 A2999
TAF OIKK 232300Z 2400/2506 31004MPS CAVOK 
     TEMPO 2410/2415 31007MPS
       
OIKO 240150Z VRB02KT 5000 HZ NSC 30/25 Q0996
OIKQ 240200Z 05004KT 1200 BR NSC 30/30 Q0995
OIMB 240200Z 14004KT CAVOK 21/M02 Q1012
OIMC 240200Z 00000KT CAVOK 25/06 Q1005
OIMD 240200Z 00000KT CAVOK 22/02 Q1007
OIMM 240230Z 30004KT CAVOK 25/05 Q1011 A2987
TAF OIMM 232300Z 2400/2506 03005MPS CAVOK 
     TEMPO 2412/2418 03010MPS
       
OIMN 240200Z 00000KT CAVOK 16/03 Q1013
OIMQ 240200Z 00000KT CAVOK 24/02 Q1010
OINB 240200Z 18004KT 9999 FEW025 26/24 Q1006
OINE 240200Z 09004KT CAVOK 25/15 Q1006
OING 240200Z 00000KT CAVOK 24/19 Q1007
OINK 240200Z 00000KT CAVOK 23/18 Q1005
OINN 240200Z 27004KT 9999 FEW025 25/21 Q1006
OINR 240200Z VRB02KT CAVOK 25/21 Q1006
OINZ 240200Z 22010KT 9999 BKN020 25/21 Q1007
OISA 240200Z 00000KT CAVOK 16/M08 Q1017
OISF 240200Z 00000KT CAVOK 20/M02 Q1007
OISL 240200Z 27006KT CAVOK 27/10 Q1002
TAF OISL 232300Z 2400/2506 30003MPS CAVOK
       
OISS 240230Z 00000KT CAVOK 22/01 Q1012 A2988
TAF OISS 232300Z 2400/2506 04004MPS CAVOK
       
OISY 240200Z 00000KT CAVOK 16/M01 Q1016
OITL 240151Z 07014KT 9999 FEW005 FEW045CB SCT090 18/16 Q1015
OITM 240200Z 10016KT 9999 FEW040 25/01 Q1009
OITP 240200Z 15014KT 9999 BKN040 26/22 Q1007
OITR 240200Z 25004KT 9999 FEW040 17/05 Q1009
TAF OITR 232300Z 2400/2506 25005MPS CAVOK 
     TEMPO 2410/2417 8000 FEW035CB SCT040
       
OITT 240230Z 09019KT 9999 SCT040 26/05 Q1010 A2985
TAF OITT 232300Z 2400/2506 06007MPS 8000 FEW040 
     TEMPO 2408/2416 06010MPS 8000 FEW035CB SCT100
       
OITU 240150Z 00000KT 8000 NSC 20/11 Q1011
OIYY 240230Z 00000KT CAVOK 24/M07 Q1012
OIZB 240200Z 33012KT CAVOK 29/03 Q0998
OIZH 240200Z 16006KT CAVOK 20/M04 Q1009 A2982
TAF OIZH 232300Z 2400/2506 33005MPS CAVOK
       
OIZI 240200Z 02004KT CAVOK 29/00 Q1001
OIZJ 240200Z 10006KT 5000 BR NSC 32/30 Q0994
OIMB 240200Z 14004KT CAVOK 21/M02 Q1012
OIMN 240200Z 00000KT CAVOK 16/03 Q1013
OIBB 240200Z 00000KT 2500 BR NSC 30/29 Q0995 A2938
OIKQ 240200Z 05004KT 1200 BR NSC 30/30 Q0995
OIAA 240200Z 21004KT 4000 HZ NSC 31/21 Q0994
TAF OIAA 232300Z 2400/2506 15004MPS CAVOK 
     TEMPO 2402/2405 3000 HZ NSC 
     BECMG 2408/2410 31005MPS 
     TEMPO 2412/2503 31010MPS 7000 NSC
       
OIAG 240200Z 13004KT CAVOK 31/07 Q0996
OIAH 240200Z 00000KT CAVOK 26/M00 Q1003
OIAI 240153Z 36002KT CAVOK 32/02 Q0997
OIAM 240200Z 12006KT 7000 NSC 33/29 Q0994
OIAW 240200Z 17004KT 8000 NSC 34/15 Q0994
TAF OIAW 232300Z 2400/2506 21003MPS 7000 NSC 
     TEMPO 2402/2405 3000 HZ NSC 
     BECMG 2412/2414 33005MPS 
     TEMPO 2418/2503 33008MPS
       
OIBB 240200Z 00000KT 2500 BR NSC 30/29 Q0995 A2938
OIBK 240200Z 09008KT 1200 BR NSC 31/30 Q0995
TAF OIBK 232300Z 2400/2506 29004MPS 1500 BR NSC 
     BECMG 2403/2405 24004MPS 4000 HZ/BR
       
OIBL 240200Z 14004KT 1500 BR FEW015 31/31 Q0995
OIBP 240230Z 00000KT 0050 FG NSC 28/28 Q0993 A2933
OIBQ 240200Z 00000KT 6000 NSC 29/28 Q0995
OIBV 240200Z 33004KT 3000 BR NSC 32/31 Q0994
OICC 240230Z 15004KT CAVOK 20/M06 Q1010 A2984
OICI 240200Z 13004KT CAVOK 27/M03 Q1010 A2984
TAF OICI 232300Z 2400/2506 31005MPS CAVOK 
     TEMPO 2408/2414 31009MPS
       
OICJ 240150Z 00000KT CAVOK 21/M08 Q1015
OICK 240150Z 10006KT CAVOK 24/M06 Q1009
OICS 240200Z 00000KT CAVOK 19/06 Q1011
OIFK 240200Z 00000KT CAVOK 22/05 Q1008
OIFM 240230Z 28006KT 8000 NSC 13/M05 Q1015 A2998
TAF OIFM 232300Z 2400/2506 02004MPS CAVOK 
     TEMPO 2401/2403 4000 HZ NSC
       
OIFS 240200Z 11002KT CAVOK 08/M04 Q1018
OIGG 240230Z 00000KT 9999 FEW015CB SCT080 26/23 Q1007
OIGK 240150Z 13006KT 9999 SCT035 18/03 Q1018
OIHH 240151Z 11006KT CAVOK 14/M03 Q1015
OIHM 240150Z 09008KT CAVOK 18/M04 Q1014
OIIE 240230Z 30006KT CAVOK 24/M00 Q1010
TAF OIIE 232300Z 2400/2506 34003MPS CAVOK 
     BECMG 2405/2407 14005MPS
       
OIII 240230Z 00000KT CAVOK 27/04 Q1011 A2988
TAF OIII 232300Z 2400/2506 34003MPS CAVOK 
     BECMG 2405/2407 14005MPS
       
OIIK 240200Z 06002KT CAVOK 19/03 Q1012
OIIS 240200Z 33002KT CAVOK 29/04 Q1012
OIKB 240230Z 02006KT 4000 BR NSC 31/30 Q0996 A2942
TAF OIKB 232300Z 2400/2506 02003MPS 4000 HZ/BR NSC 
     TEMPO 2400/2403 2000 BR 
     BECMG 2407/2409 6000 
     TEMPO 2412/2416 19007MPS 4000 SA 
     BECMG 2416/2418 4000 HZ/BR 
     BECMG 2500/2502 02003MPS 1500 BR 
     BECMG 2503/2505 19004MPS 4000 HZ
       
OIKK 240200Z 11004KT CAVOK 14/M10 Q1015 A2999
TAF OIKK 232300Z 2400/2506 31004MPS CAVOK 
     TEMPO 2410/2415 31007MPS
       
OIKO 240150Z VRB02KT 5000 HZ NSC 30/25 Q0996
OIKQ 240200Z 05004KT 1200 BR NSC 30/30 Q0995
OIMB 240200Z 14004KT CAVOK 21/M02 Q1012
OIMC 240200Z 00000KT CAVOK 25/06 Q1005
OIMD 240200Z 00000KT CAVOK 22/02 Q1007
OIMM 240230Z 30004KT CAVOK 25/05 Q1011 A2987
TAF OIMM 232300Z 2400/2506 03005MPS CAVOK 
     TEMPO 2412/2418 03010MPS
       
OIMN 240200Z 00000KT CAVOK 16/03 Q1013
OIMQ 240200Z 00000KT CAVOK 24/02 Q1010
OINB 240200Z 18004KT 9999 FEW025 26/24 Q1006
OINE 240200Z 09004KT CAVOK 25/15 Q1006
OING 240200Z 00000KT CAVOK 24/19 Q1007
OINK 240200Z 00000KT CAVOK 23/18 Q1005
OINN 240200Z 27004KT 9999 FEW025 25/21 Q1006
OINR 240200Z VRB02KT CAVOK 25/21 Q1006
OINZ 240200Z 22010KT 9999 BKN020 25/21 Q1007
OISA 240200Z 00000KT CAVOK 16/M08 Q1017
OISF 240200Z 00000KT CAVOK 20/M02 Q1007
OISL 240200Z 27006KT CAVOK 27/10 Q1002
TAF OISL 232300Z 2400/2506 30003MPS CAVOK
       
OISS 240230Z 00000KT CAVOK 22/01 Q1012 A2988
TAF OISS 232300Z 2400/2506 04004MPS CAVOK
       
OISY 240200Z 00000KT CAVOK 16/M01 Q1016
OITL 240151Z 07014KT 9999 FEW005 FEW045CB SCT090 18/16 Q1015
OITM 240200Z 10016KT 9999 FEW040 25/01 Q1009
OITP 240200Z 15014KT 9999 BKN040 26/22 Q1007
OITR 240200Z 25004KT 9999 FEW040 17/05 Q1009
TAF OITR 232300Z 2400/2506 25005MPS CAVOK 
     TEMPO 2410/2417 8000 FEW035CB SCT040
       
OITT 240230Z 09019KT 9999 SCT040 26/05 Q1010 A2985
TAF OITT 232300Z 2400/2506 06007MPS 8000 FEW040 
     TEMPO 2408/2416 06010MPS 8000 FEW035CB SCT100
       
OITU 240150Z 00000KT 8000 NSC 20/11 Q1011
OIYY 240230Z 00000KT CAVOK 24/M07 Q1012
OIZB 240200Z 33012KT CAVOK 29/03 Q0998
OIZH 240200Z 16006KT CAVOK 20/M04 Q1009 A2982
TAF OIZH 232300Z 2400/2506 33005MPS CAVOK
       
OIZI 240200Z 02004KT CAVOK 29/00 Q1001
OIZJ 240200Z 10006KT 5000 BR NSC 32/30 Q0994
OIFM 240230Z 28006KT 8000 NSC 13/M05 Q1015 A2998
TAF OIFM 232300Z 2400/2506 02004MPS CAVOK 
     TEMPO 2401/2403 4000 HZ NSC
       
OISF 240200Z 00000KT CAVOK 20/M02 Q1007
OIAH 240200Z 00000KT CAVOK 26/M00 Q1003
OIAA 240200Z 21004KT 4000 HZ NSC 31/21 Q0994
TAF OIAA 232300Z 2400/2506 15004MPS CAVOK 
     TEMPO 2402/2405 3000 HZ NSC 
     BECMG 2408/2410 31005MPS 
     TEMPO 2412/2503 31010MPS 7000 NSC
       
OIAG 240200Z 13004KT CAVOK 31/07 Q0996
OIAH 240200Z 00000KT CAVOK 26/M00 Q1003
OIAI 240153Z 36002KT CAVOK 32/02 Q0997
OIAM 240200Z 12006KT 7000 NSC 33/29 Q0994
OIAW 240200Z 17004KT 8000 NSC 34/15 Q0994
TAF OIAW 232300Z 2400/2506 21003MPS 7000 NSC 
     TEMPO 2402/2405 3000 HZ NSC 
     BECMG 2412/2414 33005MPS 
     TEMPO 2418/2503 33008MPS
       
OIBB 240200Z 00000KT 2500 BR NSC 30/29 Q0995 A2938
OIBK 240200Z 09008KT 1200 BR NSC 31/30 Q0995
TAF OIBK 232300Z 2400/2506 29004MPS 1500 BR NSC 
     BECMG 2403/2405 24004MPS 4000 HZ/BR
       
OIBL 240200Z 14004KT 1500 BR FEW015 31/31 Q0995
OIBP 240230Z 00000KT 0050 FG NSC 28/28 Q0993 A2933
OIBQ 240200Z 00000KT 6000 NSC 29/28 Q0995
OIBV 240200Z 33004KT 3000 BR NSC 32/31 Q0994
OICC 240230Z 15004KT CAVOK 20/M06 Q1010 A2984
OICI 240200Z 13004KT CAVOK 27/M03 Q1010 A2984
TAF OICI 232300Z 2400/2506 31005MPS CAVOK 
     TEMPO 2408/2414 31009MPS
       
OICJ 240150Z 00000KT CAVOK 21/M08 Q1015
OICK 240150Z 10006KT CAVOK 24/M06 Q1009
OICS 240200Z 00000KT CAVOK 19/06 Q1011
OIFK 240200Z 00000KT CAVOK 22/05 Q1008
OIFM 240230Z 28006KT 8000 NSC 13/M05 Q1015 A2998
TAF OIFM 232300Z 2400/2506 02004MPS CAVOK 
     TEMPO 2401/2403 4000 HZ NSC
       
OIFS 240200Z 11002KT CAVOK 08/M04 Q1018
OIGG 240230Z 00000KT 9999 FEW015CB SCT080 26/23 Q1007
OIGK 240150Z 13006KT 9999 SCT035 18/03 Q1018
OIHH 240151Z 11006KT CAVOK 14/M03 Q1015
OIHM 240150Z 09008KT CAVOK 18/M04 Q1014
OIIE 240230Z 30006KT CAVOK 24/M00 Q1010
TAF OIIE 232300Z 2400/2506 34003MPS CAVOK 
     BECMG 2405/2407 14005MPS
       
OIII 240230Z 00000KT CAVOK 27/04 Q1011 A2988
TAF OIII 232300Z 2400/2506 34003MPS CAVOK 
     BECMG 2405/2407 14005MPS
       
OIIK 240200Z 06002KT CAVOK 19/03 Q1012
OIIS 240200Z 33002KT CAVOK 29/04 Q1012
OIKB 240230Z 02006KT 4000 BR NSC 31/30 Q0996 A2942
TAF OIKB 232300Z 2400/2506 02003MPS 4000 HZ/BR NSC 
     TEMPO 2400/2403 2000 BR 
     BECMG 2407/2409 6000 
     TEMPO 2412/2416 19007MPS 4000 SA 
     BECMG 2416/2418 4000 HZ/BR 
     BECMG 2500/2502 02003MPS 1500 BR 
     BECMG 2503/2505 19004MPS 4000 HZ
       
OIKK 240200Z 11004KT CAVOK 14/M10 Q1015 A2999
TAF OIKK 232300Z 2400/2506 31004MPS CAVOK 
     TEMPO 2410/2415 31007MPS
       
OIKO 240150Z VRB02KT 5000 HZ NSC 30/25 Q0996
OIKQ 240200Z 05004KT 1200 BR NSC 30/30 Q0995
OIMB 240200Z 14004KT CAVOK 21/M02 Q1012
OIMC 240200Z 00000KT CAVOK 25/06 Q1005
OIMD 240200Z 00000KT CAVOK 22/02 Q1007
OIMM 240230Z 30004KT CAVOK 25/05 Q1011 A2987
TAF OIMM 232300Z 2400/2506 03005MPS CAVOK 
     TEMPO 2412/2418 03010MPS
       
OIMN 240200Z 00000KT CAVOK 16/03 Q1013
OIMQ 240200Z 00000KT CAVOK 24/02 Q1010
OINB 240200Z 18004KT 9999 FEW025 26/24 Q1006
OINE 240200Z 09004KT CAVOK 25/15 Q1006
OING 240200Z 00000KT CAVOK 24/19 Q1007
OINK 240200Z 00000KT CAVOK 23/18 Q1005
OINN 240200Z 27004KT 9999 FEW025 25/21 Q1006
OINR 240200Z VRB02KT CAVOK 25/21 Q1006
OINZ 240200Z 22010KT 9999 BKN020 25/21 Q1007
OISA 240200Z 00000KT CAVOK 16/M08 Q1017
OISF 240200Z 00000KT CAVOK 20/M02 Q1007
OISL 240200Z 27006KT CAVOK 27/10 Q1002
TAF OISL 232300Z 2400/2506 30003MPS CAVOK
       
OISS 240230Z 00000KT CAVOK 22/01 Q1012 A2988
TAF OISS 232300Z 2400/2506 04004MPS CAVOK
       
OISY 240200Z 00000KT CAVOK 16/M01 Q1016
OITL 240151Z 07014KT 9999 FEW005 FEW045CB SCT090 18/16 Q1015
OITM 240200Z 10016KT 9999 FEW040 25/01 Q1009
OITP 240200Z 15014KT 9999 BKN040 26/22 Q1007
OITR 240200Z 25004KT 9999 FEW040 17/05 Q1009
TAF OITR 232300Z 2400/2506 25005MPS CAVOK 
     TEMPO 2410/2417 8000 FEW035CB SCT040
       
OITT 240230Z 09019KT 9999 SCT040 26/05 Q1010 A2985
TAF OITT 232300Z 2400/2506 06007MPS 8000 FEW040 
     TEMPO 2408/2416 06010MPS 8000 FEW035CB SCT100
       
OITU 240150Z 00000KT 8000 NSC 20/11 Q1011
OIYY 240230Z 00000KT CAVOK 24/M07 Q1012
OIZB 240200Z 33012KT CAVOK 29/03 Q0998
OIZH 240200Z 16006KT CAVOK 20/M04 Q1009 A2982
TAF OIZH 232300Z 2400/2506 33005MPS CAVOK
       
OIZI 240200Z 02004KT CAVOK 29/00 Q1001
OIZJ 240200Z 10006KT 5000 BR NSC 32/30 Q0994
OIIK 240200Z 06002KT CAVOK 19/03 Q1012
OIAA 240200Z 21004KT 4000 HZ NSC 31/21 Q0994
TAF OIAA 232300Z 2400/2506 15004MPS CAVOK 
     TEMPO 2402/2405 3000 HZ NSC 
     BECMG 2408/2410 31005MPS 
     TEMPO 2412/2503 31010MPS 7000 NSC
       
OIAG 240200Z 13004KT CAVOK 31/07 Q0996
OIAH 240200Z 00000KT CAVOK 26/M00 Q1003
OIAI 240153Z 36002KT CAVOK 32/02 Q0997
OIAM 240200Z 12006KT 7000 NSC 33/29 Q0994
OIAW 240200Z 17004KT 8000 NSC 34/15 Q0994
TAF OIAW 232300Z 2400/2506 21003MPS 7000 NSC 
     TEMPO 2402/2405 3000 HZ NSC 
     BECMG 2412/2414 33005MPS 
     TEMPO 2418/2503 33008MPS
       
OIBB 240200Z 00000KT 2500 BR NSC 30/29 Q0995 A2938
OIBK 240200Z 09008KT 1200 BR NSC 31/30 Q0995
TAF OIBK 232300Z 2400/2506 29004MPS 1500 BR NSC 
     BECMG 2403/2405 24004MPS 4000 HZ/BR
       
OIBL 240200Z 14004KT 1500 BR FEW015 31/31 Q0995
OIBP 240230Z 00000KT 0050 FG NSC 28/28 Q0993 A2933
OIBQ 240200Z 00000KT 6000 NSC 29/28 Q0995
OIBV 240200Z 33004KT 3000 BR NSC 32/31 Q0994
OICC 240230Z 15004KT CAVOK 20/M06 Q1010 A2984
OICI 240200Z 13004KT CAVOK 27/M03 Q1010 A2984
TAF OICI 232300Z 2400/2506 31005MPS CAVOK 
     TEMPO 2408/2414 31009MPS
       
OICJ 240150Z 00000KT CAVOK 21/M08 Q1015
OICK 240150Z 10006KT CAVOK 24/M06 Q1009
OICS 240200Z 00000KT CAVOK 19/06 Q1011
OIFK 240200Z 00000KT CAVOK 22/05 Q1008
OIFM 240230Z 28006KT 8000 NSC 13/M05 Q1015 A2998
TAF OIFM 232300Z 2400/2506 02004MPS CAVOK 
     TEMPO 2401/2403 4000 HZ NSC
       
OIFS 240200Z 11002KT CAVOK 08/M04 Q1018
OIGG 240230Z 00000KT 9999 FEW015CB SCT080 26/23 Q1007
OIGK 240150Z 13006KT 9999 SCT035 18/03 Q1018
OIHH 240151Z 11006KT CAVOK 14/M03 Q1015
OIHM 240150Z 09008KT CAVOK 18/M04 Q1014
OIIE 240230Z 30006KT CAVOK 24/M00 Q1010
TAF OIIE 232300Z 2400/2506 34003MPS CAVOK 
     BECMG 2405/2407 14005MPS
       
OIII 240230Z 00000KT CAVOK 27/04 Q1011 A2988
TAF OIII 232300Z 2400/2506 34003MPS CAVOK 
     BECMG 2405/2407 14005MPS
       
OIIK 240200Z 06002KT CAVOK 19/03 Q1012
OIIS 240200Z 33002KT CAVOK 29/04 Q1012
OIKB 240230Z 02006KT 4000 BR NSC 31/30 Q0996 A2942
TAF OIKB 232300Z 2400/2506 02003MPS 4000 HZ/BR NSC 
     TEMPO 2400/2403 2000 BR 
     BECMG 2407/2409 6000 
     TEMPO 2412/2416 19007MPS 4000 SA 
     BECMG 2416/2418 4000 HZ/BR 
     BECMG 2500/2502 02003MPS 1500 BR 
     BECMG 2503/2505 19004MPS 4000 HZ
       
OIKK 240200Z 11004KT CAVOK 14/M10 Q1015 A2999
TAF OIKK 232300Z 2400/2506 31004MPS CAVOK 
     TEMPO 2410/2415 31007MPS
       
OIKO 240150Z VRB02KT 5000 HZ NSC 30/25 Q0996
OIKQ 240200Z 05004KT 1200 BR NSC 30/30 Q0995
OIMB 240200Z 14004KT CAVOK 21/M02 Q1012
OIMC 240200Z 00000KT CAVOK 25/06 Q1005
OIMD 240200Z 00000KT CAVOK 22/02 Q1007
OIMM 240230Z 30004KT CAVOK 25/05 Q1011 A2987
TAF OIMM 232300Z 2400/2506 03005MPS CAVOK 
     TEMPO 2412/2418 03010MPS
       
OIMN 240200Z 00000KT CAVOK 16/03 Q1013
OIMQ 240200Z 00000KT CAVOK 24/02 Q1010
OINB 240200Z 18004KT 9999 FEW025 26/24 Q1006
OINE 240200Z 09004KT CAVOK 25/15 Q1006
OING 240200Z 00000KT CAVOK 24/19 Q1007
OINK 240200Z 00000KT CAVOK 23/18 Q1005
OINN 240200Z 27004KT 9999 FEW025 25/21 Q1006
OINR 240200Z VRB02KT CAVOK 25/21 Q1006
OINZ 240200Z 22010KT 9999 BKN020 25/21 Q1007
OISA 240200Z 00000KT CAVOK 16/M08 Q1017
OISF 240200Z 00000KT CAVOK 20/M02 Q1007
OISL 240200Z 27006KT CAVOK 27/10 Q1002
TAF OISL 232300Z 2400/2506 30003MPS CAVOK
       
OISS 240230Z 00000KT CAVOK 22/01 Q1012 A2988
TAF OISS 232300Z 2400/2506 04004MPS CAVOK
       
OISY 240200Z 00000KT CAVOK 16/M01 Q1016
OITL 240151Z 07014KT 9999 FEW005 FEW045CB SCT090 18/16 Q1015
OITM 240200Z 10016KT 9999 FEW040 25/01 Q1009
OITP 240200Z 15014KT 9999 BKN040 26/22 Q1007
OITR 240200Z 25004KT 9999 FEW040 17/05 Q1009
TAF OITR 232300Z 2400/2506 25005MPS CAVOK 
     TEMPO 2410/2417 8000 FEW035CB SCT040
       
OITT 240230Z 09019KT 9999 SCT040 26/05 Q1010 A2985
TAF OITT 232300Z 2400/2506 06007MPS 8000 FEW040 
     TEMPO 2408/2416 06010MPS 8000 FEW035CB SCT100
       
OITU 240150Z 00000KT 8000 NSC 20/11 Q1011
OIYY 240230Z 00000KT CAVOK 24/M07 Q1012
OIZB 240200Z 33012KT CAVOK 29/03 Q0998
OIZH 240200Z 16006KT CAVOK 20/M04 Q1009 A2982
TAF OIZH 232300Z 2400/2506 33005MPS CAVOK
       
OIZI 240200Z 02004KT CAVOK 29/00 Q1001
OIZJ 240200Z 10006KT 5000 BR NSC 32/30 Q0994
OING 240200Z 00000KT CAVOK 24/19 Q1007
OIHH 240151Z 11006KT CAVOK 14/M03 Q1015
OICI 240200Z 13004KT CAVOK 27/M03 Q1010 A2984
TAF OICI 232300Z 2400/2506 31005MPS CAVOK 
     TEMPO 2408/2414 31009MPS
       
OIZI 240200Z 02004KT CAVOK 29/00 Q1001
OIZJ 240200Z 10006KT 5000 BR NSC 32/30 Q0994
OINE 240200Z 09004KT CAVOK 25/15 Q1006
OIKK 240200Z 11004KT CAVOK 14/M10 Q1015 A2999
TAF OIKK 232300Z 2400/2506 31004MPS CAVOK 
     TEMPO 2410/2415 31007MPS
       
OIBQ 240200Z 00000KT 6000 NSC 29/28 Q0995
OICK 240150Z 10006KT CAVOK 24/M06 Q1009
OIBK 240200Z 09008KT 1200 BR NSC 31/30 Q0995
TAF OIBK 232300Z 2400/2506 29004MPS 1500 BR NSC 
     BECMG 2403/2405 24004MPS 4000 HZ/BR
       
OISL 240200Z 27006KT CAVOK 27/10 Q1002
TAF OISL 232300Z 2400/2506 30003MPS CAVOK
       
OIBV 240200Z 33004KT 3000 BR NSC 32/31 Q0994
OIAM 240200Z 12006KT 7000 NSC 33/29 Q0994
OIMM 240230Z 30004KT CAVOK 25/05 Q1011 A2987
TAF OIMM 232300Z 2400/2506 03005MPS CAVOK 
     TEMPO 2412/2418 03010MPS
       
OIII 240230Z 00000KT CAVOK 27/04 Q1011 A2988
TAF OIII 232300Z 2400/2506 34003MPS CAVOK 
     BECMG 2405/2407 14005MPS
       
OINN 240200Z 27004KT 9999 FEW025 25/21 Q1006
OITP 240200Z 15014KT 9999 BKN040 26/22 Q1007
OINR 240200Z VRB02KT CAVOK 25/21 Q1006
OIGG 240230Z 00000KT 9999 FEW015CB SCT080 26/23 Q1007
OITM 240200Z 10016KT 9999 FEW040 25/01 Q1009
OICS 240200Z 00000KT CAVOK 19/06 Q1011
OIMC 240200Z 00000KT CAVOK 25/06 Q1005
OINZ 240200Z 22010KT 9999 BKN020 25/21 Q1007
OIIS 240200Z 33002KT CAVOK 29/04 Q1012
OICC 240230Z 15004KT CAVOK 20/M06 Q1010 A2984
OIAI 240153Z 36002KT CAVOK 32/02 Q0997
OIFS 240200Z 11002KT CAVOK 08/M04 Q1018
OISS 240230Z 00000KT CAVOK 22/01 Q1012 A2988
TAF OISS 232300Z 2400/2506 04004MPS CAVOK
       
OITT 240230Z 09019KT 9999 SCT040 26/05 Q1010 A2985
TAF OITT 232300Z 2400/2506 06007MPS 8000 FEW040 
     TEMPO 2408/2416 06010MPS 8000 FEW035CB SCT100
       
OITR 240200Z 25004KT 9999 FEW040 17/05 Q1009
TAF OITR 232300Z 2400/2506 25005MPS CAVOK 
     TEMPO 2410/2417 8000 FEW035CB SCT040
       
OISY 240200Z 00000KT CAVOK 16/M01 Q1016
OIYY 240230Z 00000KT CAVOK 24/M07 Q1012
OIZB 240200Z 33012KT CAVOK 29/03 Q0998
OIZH 240200Z 16006KT CAVOK 20/M04 Q1009 A2982
TAF OIZH 232300Z 2400/2506 33005MPS CAVOK